Date String (YYYY-MM-DD hh:mm:ss) UTC,Instrument flags,absolute air pressure of the measurement (hPa),sample flow rate (lpm),inlet stack bypass flow (lpm),air temperature of the measurement (°C),ambient temperature measured by the external sensor (°C),aerosol sample conditioner tube jacket temperature (°C),OPC LED temperature (°C),internal box temperature (°C),relative humidity of the measurement (%),span deviation,mass concentration of particles derived from Lorenz-Mie calculation of OPC scattering (μg/m³),mass concentration of particles derived from Lorenz-Mie calculation of OPC scattering (μg/m³),mass concentration of particles derived from Lorenz-Mie calculation of OPC scattering (μg/m³)
DateTimeUTC,F1_M11,P_M11,Q1_M11,Q2_M11,T1_M11,T2_M11,T3_M11,T4_M11,T5_M11,U1_M11,ZSPAN_M11,X2_M11,X0_M11,X1_M11
2023-07-31 14:00:00,SystemResetWarning,0837.7,4.99,000.00,034.4,028.4,000.0,042.0,032.8,34.6,0001.0,0011.58,0030.61,0007.74
2023-07-31 14:01:00,SystemResetWarning,0837.7,4.99,000.00,034.4,028.5,000.0,042.0,032.8,34.7,0000.9,0011.50,0030.21,0007.70
2023-07-31 14:02:00,SystemResetWarning,0837.7,5.00,000.00,034.3,028.7,000.0,042.0,032.8,34.9,0000.5,0011.41,0029.23,0007.67
2023-07-31 14:03:00,SystemResetWarning,0837.7,5.00,000.00,034.2,028.8,000.0,042.0,032.8,34.8,0000.6,0011.38,0028.99,0007.63
2023-07-31 14:04:00,SystemResetWarning,0837.7,5.00,000.00,034.2,028.3,000.0,041.9,032.8,34.7,0000.8,0011.35,0028.91,0007.61
2023-07-31 14:05:00,SystemResetWarning,0837.7,5.00,000.00,034.2,026.6,000.0,041.8,032.5,34.5,0001.4,0011.30,0029.47,0007.58
2023-07-31 14:06:00,SystemResetWarning,0837.7,5.01,000.00,034.0,025.6,000.0,041.6,032.4,34.7,0002.2,0011.22,0030.43,0007.56
2023-07-31 14:07:00,SystemResetWarning,0837.7,4.98,000.00,033.9,025.6,000.0,041.5,032.1,35.0,0001.8,0011.15,0030.26,0007.51
2023-07-31 14:08:00,SystemResetWarning,0837.7,5.02,000.00,033.6,025.9,000.0,041.5,032.0,35.3,0002.4,0011.20,0029.93,0007.46
2023-07-31 14:09:00,SystemResetWarning,0837.7,5.02,000.00,033.7,026.3,000.0,041.5,032.2,35.0,0001.6,0011.16,0029.95,0007.41
2023-07-31 14:10:00,SystemResetWarning,0837.8,4.96,000.00,033.8,026.8,000.0,041.5,032.3,34.7,0001.4,0011.08,0029.42,0007.38
2023-07-31 14:11:00,SystemResetWarning,0837.7,5.02,000.00,033.8,027.1,000.0,041.5,032.4,34.7,0001.5,0010.95,0028.23,0007.34
2023-07-31 14:12:00,SystemResetWarning,0837.8,5.00,000.00,033.8,027.5,000.0,041.5,032.4,34.6,0000.8,0010.86,0028.54,0007.30
2023-07-31 14:13:00,SystemResetWarning,0837.7,4.99,000.00,033.7,027.8,000.0,041.5,032.4,34.6,0001.0,0010.89,0029.03,0007.28
2023-07-31 14:14:00,SystemResetWarning,0837.7,5.00,000.00,033.7,028.0,000.0,041.5,032.4,34.8,0000.9,0010.82,0029.26,0007.25
2023-07-31 14:15:00,SystemResetWarning,0837.7,4.98,000.00,033.6,028.2,000.0,041.5,032.5,35.0,0000.6,0010.83,0029.13,0007.19
2023-07-31 14:16:00,SystemResetWarning,0837.6,5.03,000.00,033.7,028.4,000.0,041.5,032.5,35.3,0000.4,0010.79,0029.24,0007.12
2023-07-31 14:17:00,SystemResetWarning,0837.7,4.99,000.00,033.8,028.5,000.0,041.5,032.7,34.8,0000.7,0010.67,0028.20,0007.00
2023-07-31 14:18:00,SystemResetWarning,0837.7,4.99,000.00,033.9,028.6,000.0,041.5,032.7,34.2,0000.5,0010.47,0027.72,0006.90
2023-07-31 14:19:00,SystemResetWarning,0837.7,5.02,000.00,033.9,028.7,000.0,041.5,032.7,34.2,0000.3,0010.28,0026.88,0006.84
2023-07-31 14:20:00,SystemResetWarning,0837.7,4.98,000.00,033.9,028.3,000.0,041.4,032.7,34.1,0000.3,0010.15,0026.56,0006.80
2023-07-31 14:21:00,SystemResetWarning,0837.6,5.00,000.00,033.9,026.6,000.0,041.3,032.4,34.0,0000.4,0009.99,0026.38,0006.72
2023-07-31 14:22:00,SystemResetWarning,0837.6,5.02,000.00,033.8,025.5,000.0,041.2,032.2,34.0,0000.5,0009.88,0026.40,0006.66
2023-07-31 14:23:00,SystemResetWarning,0837.7,5.00,000.00,033.6,025.4,000.0,041.1,031.9,34.4,0000.9,0009.84,0025.43,0006.59
2023-07-31 14:24:00,SystemResetWarning,0837.6,4.99,000.00,033.3,025.7,000.0,041.2,031.8,34.9,0001.8,0009.66,0024.69,0006.52
2023-07-31 14:25:00,SystemResetWarning,0837.5,5.00,000.00,033.2,026.2,000.0,041.2,031.9,35.3,0002.0,0009.52,0025.48,0006.45
2023-07-31 14:26:00,SystemResetWarning,0837.6,5.02,000.00,033.3,026.6,000.0,041.2,032.1,35.2,0001.9,0009.39,0025.17,0006.41
2023-07-31 14:27:00,SystemResetWarning,0837.6,4.99,000.00,033.5,027.0,000.0,041.1,032.3,34.8,0001.7,0009.25,0024.80,0006.38
2023-07-31 14:28:00,SystemResetWarning,0837.6,4.98,000.00,033.6,027.4,000.0,041.1,032.3,34.4,0001.4,0009.21,0025.24,0006.35
2023-07-31 14:29:00,SystemResetWarning,0837.6,5.02,000.00,033.6,027.6,000.0,041.1,032.3,34.2,0001.6,0009.25,0025.44,0006.33
2023-07-31 14:30:00,SystemResetWarning,0837.6,5.01,000.00,033.6,027.9,000.0,041.2,032.4,34.0,0001.7,0009.24,0026.13,0006.29
2023-07-31 14:31:00,SystemResetWarning,0837.6,4.99,000.00,033.6,028.1,000.0,041.2,032.4,34.3,0002.0,0009.19,0027.01,0006.26
2023-07-31 14:32:00,SystemResetWarning,0837.6,4.99,000.00,033.6,028.3,000.0,041.2,032.4,34.4,0002.3,0009.20,0027.33,0006.24
2023-07-31 14:33:00,SystemResetWarning,0837.6,5.00,000.00,033.5,028.4,000.0,041.2,032.4,34.5,0002.1,0009.20,0027.35,0006.23
2023-07-31 14:34:00,SystemResetWarning,0837.7,5.00,000.00,033.5,028.6,000.0,041.3,032.5,34.5,0001.8,0009.11,0027.60,0006.21
2023-07-31 14:35:00,SystemResetWarning,0837.6,5.00,000.00,033.4,028.7,000.0,041.3,032.5,34.8,0000.2,0009.05,0026.96,0006.17
2023-07-31 14:36:00,SystemResetWarning,0837.6,5.00,000.00,033.4,028.7,000.0,041.3,032.5,34.6,0000.5,0008.99,0025.99,0006.13
2023-07-31 14:37:00,SystemResetWarning,0837.6,4.98,000.00,033.4,027.5,000.0,041.1,032.4,34.4,0000.3,0008.87,0024.50,0006.07
2023-07-31 14:38:00,SystemResetWarning,0837.5,5.01,000.00,033.3,025.9,000.0,041.0,032.1,34.5,0000.0,0008.79,0024.33,0006.03
2023-07-31 14:39:00,SystemResetWarning,0837.5,4.99,000.00,033.2,025.4,000.0,040.8,031.9,34.9,0000.3,0008.71,0023.79,0005.99
2023-07-31 14:40:00,SystemResetWarning,0837.4,5.01,000.00,033.0,025.6,000.0,040.8,031.8,35.4,0000.4,0008.50,0022.85,0005.96
2023-07-31 14:41:00,SystemResetWarning,0837.5,5.02,000.00,033.0,026.0,000.0,040.8,031.8,35.0,0000.0,0008.37,0021.68,0005.91
2023-07-31 14:42:00,SystemResetWarning,0837.6,4.96,000.00,033.1,026.4,000.0,040.8,032.0,34.7,-000.2,0008.28,0021.45,0005.87
2023-07-31 14:43:00,SystemResetWarning,0837.6,5.02,000.00,033.1,026.8,000.0,040.8,032.1,34.8,-000.7,0008.24,0022.61,0005.83
2023-07-31 14:44:00,SystemResetWarning,0837.6,5.00,000.00,033.1,027.2,000.0,040.8,032.1,34.3,-000.3,0008.15,0022.39,0005.78
2023-07-31 14:45:00,SystemResetWarning,0837.6,5.00,000.00,033.1,027.5,000.0,040.8,032.1,34.4,-000.1,0008.08,0021.65,0005.71
2023-07-31 14:46:00,SystemResetWarning,0837.6,5.00,000.00,033.1,027.8,000.0,040.9,032.2,34.7,-000.4,0008.00,0022.01,0005.66
2023-07-31 14:47:00,SystemResetWarning,0837.6,5.00,000.00,033.0,028.0,000.0,040.9,032.2,34.9,-001.2,0007.94,0021.86,0005.61
2023-07-31 14:48:00,SystemResetWarning,0837.6,5.00,000.00,033.0,028.2,000.0,040.9,032.2,34.8,-001.2,0007.89,0022.06,0005.59
2023-07-31 14:49:00,SystemResetWarning,0837.6,4.99,000.00,032.9,028.4,000.0,040.9,032.3,34.7,-001.0,0007.87,0021.83,0005.55
2023-07-31 14:50:00,SystemResetWarning,0837.6,4.98,000.00,032.9,028.5,000.0,040.9,032.3,35.0,-001.3,0007.86,0021.76,0005.52
2023-07-31 14:51:00,SystemResetWarning,0837.6,5.04,000.00,032.9,028.6,000.0,040.9,032.4,34.8,-001.8,0007.90,0022.78,0005.50
2023-07-31 14:52:00,SystemResetWarning,0837.6,4.96,000.00,033.0,028.7,000.0,040.9,032.4,34.6,-002.2,0007.90,0024.06,0005.49
2023-07-31 14:53:00,SystemResetWarning,0837.6,5.00,000.00,033.1,027.4,000.0,040.7,032.4,34.7,-002.7,0007.82,0022.94,0005.47
2023-07-31 14:54:00,SystemResetWarning,0837.6,5.00,000.00,033.0,025.8,000.0,040.6,032.1,34.5,-002.4,0007.68,0021.77,0005.44
2023-07-31 14:55:00,SystemResetWarning,0837.6,5.00,000.00,032.9,025.3,000.0,040.5,031.8,34.7,-002.9,0007.61,0021.40,0005.42
2023-07-31 14:56:00,SystemResetWarning,0837.5,4.99,000.00,032.7,025.5,000.0,040.5,031.6,35.2,-003.1,0007.56,0021.89,0005.41
2023-07-31 14:57:00,SystemResetWarning,0837.4,5.03,000.00,032.6,025.9,000.0,040.5,031.7,35.5,-002.6,0007.60,0021.81,0005.43
2023-07-31 14:58:00,SystemResetWarning,0837.4,4.98,000.00,032.8,026.3,000.0,040.5,031.9,35.1,-002.2,0007.58,0021.13,0005.43
2023-07-31 14:59:00,SystemResetWarning,0837.4,5.01,000.00,033.0,026.8,000.0,040.5,032.0,34.6,-002.1,0007.57,0020.95,0005.43
